1501578001.22,53432,22.63,75156.5,27.59,-8.71,-9.57,0,*42
1501578002.48,53433,22.63,75154.3,27.59,-7.57,-8.37,0,*4F
1501578003.66,53434,22.63,75154.0,27.61,-8.41,-9.23,0,*4F
1501578004.9,53435,22.63,75158.0,27.63,-8.29,-9.15,0,*47
1501578006.12,53436,22.63,75154.5,27.61,-9.11,-9.67,0,*49
1501578007.37,53437,22.63,75152.3,27.63,-8.81,-9.71,0,*45
1501578008.61,53438,22.63,75150.8,27.63,-8.11,-9.05,0,*40
1501578009.85,53439,22.63,75154.8,27.63,-8.51,-9.05,0,*45
1501578011.06,53440,22.63,75152.3,27.63,-7.87,-8.67,0,*4A
1501578012.31,53441,22.63,75156.0,27.63,-8.11,-8.89,0,*4B
1501578013.57,53442,22.63,75154.5,27.67,-7.27,-8.03,0,*44
1501578014.81,53443,22.63,75154.8,27.67,-7.23,-7.95,0,*41
1501578016.08,53444,22.63,75154.5,27.67,-7.01,-7.91,0,*42
1501578017.29,53445,22.63,75158.0,27.69,-7.23,-8.03,0,*49
1501578018.53,53446,22.63,75154.3,27.71,-7.61,-8.41,0,*43
1501578019.77,53447,22.63,75152.5,27.71,-6.43,-7.27,0,*4C
1501578020.99,53448,22.63,75156.5,27.73,-6.89,-7.69,0,*4D
1501578022.25,53449,22.63,75154.5,27.75,-7.31,-8.11,0,*48
1501578023.48,53450,22.63,75156.5,27.75,-6.85,-7.69,0,*4E
1501578024.73,53451,22.63,75154.0,27.79,-7.43,-8.21,0,*4B
1501578025.95,53452,22.63,75154.3,27.77,-7.61,-8.41,0,*40
1501578027.2,53453,22.63,75158.0,27.79,-6.93,-7.83,0,*42
1501578028.41,53454,22.63,75152.3,27.79,-7.23,-8.25,0,*4C
1501578029.66,53455,22.69,75160.5,27.77,-6.97,-7.77,0,*45
1501578030.9,53456,22.63,75158.0,27.79,-6.69,-7.57,0,*4B
1501578032.14,53457,22.63,75154.8,27.83,-6.77,-7.69,0,*4D
1501578033.37,53458,22.63,75156.5,27.85,-7.43,-8.37,0,*46
1501578034.61,53459,22.63,75158.3,27.83,-8.37,-9.41,0,*4D
1501578035.83,53460,22.63,75154.8,27.85,-7.91,-8.85,0,*4B
1501578037.07,53461,22.63,75154.0,27.83,-8.21,-9.15,0,*40
1501578038.31,53462,22.63,75156.8,27.83,-7.77,-8.59,0,*46
1501578039.53,53463,22.63,75158.3,27.85,-6.85,-7.69,0,*41
1501578040.75,53464,22.63,75154.0,27.85,-6.39,-7.27,0,*4B
1501578041.97,53465,22.63,75156.5,27.85,-6.47,-7.27,0,*43
1501578043.21,53466,22.63,75156.5,27.87,-6.05,-6.93,0,*4A
1501578044.4,53467,22.63,75156.5,27.89,-6.89,-7.87,0,*45
1501578045.65,53468,22.63,75156.5,27.91,-6.93,-7.83,0,*4C
1501578046.89,53469,22.63,75158.5,27.91,-6.69,-7.43,0,*44
1501578048.07,53470,22.63,75158.5,27.93,-6.05,-6.89,0,*43
1501578049.31,53471,22.63,75158.3,27.95,-6.05,-6.93,0,*4F
1501578050.53,53472,22.63,75156.8,27.95,-6.31,-7.15,0,*44
1501578051.76,53473,22.63,75156.5,27.97,-7.87,-8.81,0,*49
1501578053.0,53474,22.63,75158.0,27.97,-7.69,-8.55,0,*47
1501578054.23,53475,22.63,75156.8,27.95,-8.03,-8.89,0,*46
1501578055.44,53476,22.63,75154.8,27.95,-7.83,-8.59,0,*4F
1501578056.71,53477,22.63,75156.0,27.95,-6.97,-7.77,0,*49
1501578057.95,53478,22.63,75154.8,27.97,-6.63,-7.49,0,*42
1501578059.16,53479,22.63,75154.8,27.97,-7.49,-8.29,0,*43
1501578060.37,53480,22.63,75158.8,27.97,-7.49,-8.17,0,*48
1501578061.62,53481,22.63,75156.8,27.97,-6.51,-7.31,0,*4A
1501578062.87,53482,22.63,75152.8,27.97,-6.13,-6.93,0,*46
1501578064.09,53483,22.63,75158.5,28.01,-5.97,-6.73,0,*46
1501578065.33,53484,22.63,75158.0,28.01,-5.73,-6.59,0,*43
1501578066.6,53485,22.63,75152.3,28.05,-6.19,-6.97,0,*4B
1501578067.81,53486,22.63,75156.8,28.05,-7.49,-8.41,0,*49
1501578069.0,53487,22.63,75156.3,28.07,-8.17,-9.19,0,*42
1501578070.21,53488,22.63,75156.3,28.05,-8.29,-9.23,0,*4B
1501578071.45,53489,22.63,75156.8,28.01,-8.51,-9.31,0,*42
1501578072.67,53490,22.63,75154.0,27.99,-7.87,-8.81,0,*4A
1501578073.91,53491,22.63,75154.8,28.01,-7.57,-8.33,0,*41
1501578075.13,53492,22.63,75152.0,28.01,-6.59,-7.53,0,*44
1501578076.37,53493,22.63,75156.8,28.05,-6.59,-7.35,0,*41
1501578077.61,53494,22.63,75154.0,28.05,-6.73,-7.39,0,*42
1501578078.86,53495,22.63,75152.8,28.05,-7.65,-8.45,0,*41
1501578080.09,53496,22.63,75158.3,28.05,-8.21,-9.15,0,*49
1501578081.33,53497,22.63,75158.0,28.05,-8.55,-9.41,0,*4A
1501578082.61,53498,22.69,75158.0,28.01,-7.05,-7.99,0,*40
1501578083.82,53499,22.63,75154.8,28.05,-6.69,-7.49,0,*43
1501578085.05,53500,22.63,75158.5,28.07,-7.05,-7.91,0,*4E
1501578086.3,53501,22.63,75152.5,28.05,-8.55,-9.45,0,*40
1501578087.53,53502,22.63,75156.5,28.05,-9.27,-10.19,0,*76
1501578088.77,53503,22.63,75156.3,27.99,-9.11,-10.15,0,*74
1501578089.99,53504,22.63,75156.0,27.99,-8.81,-9.67,0,*46
1501578091.21,53505,22.63,75156.5,27.99,-8.25,-9.11,0,*48
1501578092.48,53506,22.63,75152.0,27.97,-6.93,-7.73,0,*4C
1501578093.73,53507,22.63,75158.0,27.99,-6.97,-7.99,0,*43
1501578094.95,53508,22.63,75156.8,27.99,-6.89,-7.57,0,*41
1501578096.2,53509,22.63,75152.8,27.99,-6.93,-7.77,0,*49
1501578097.42,53510,22.63,75156.0,27.99,-8.11,-9.05,0,*4E
1501578098.65,53511,22.63,75156.0,27.99,-9.11,-9.93,0,*41
1501578099.87,53512,22.63,75154.8,27.99,-8.17,-9.11,0,*4F
1501578101.12,53513,22.63,75156.0,27.97,-8.11,-9.19,0,*4E
1501578102.35,53514,22.63,75156.3,27.97,-9.19,-10.19,0,*78
1501578103.58,53515,22.63,75156.3,27.95,-9.23,-10.19,0,*72
1501578104.78,53516,22.63,75154.8,27.93,-8.89,-9.75,0,*44
1501578105.97,53517,22.63,75152.0,27.93,-8.21,-9.05,0,*40
1501578107.21,53518,22.63,75152.8,27.93,-7.65,-8.51,0,*40
1501578108.41,53519,22.63,75156.3,27.95,-7.53,-8.33,0,*46
1501578109.62,53520,22.63,75156.3,27.95,-7.83,-8.59,0,*4D
1501578110.81,53521,22.63,75152.8,27.93,-7.83,-8.71,0,*40
1501578112.02,53522,22.63,75152.3,27.95,-7.53,-8.41,0,*4B
1501578113.26,53523,22.63,75152.8,27.95,-7.73,-8.71,0,*4B
1501578114.46,53524,22.69,75156.8,27.93,-9.19,-10.23,0,*76
1501578115.7,53525,22.63,75156.3,27.91,-7.57,-8.41,0,*4C
1501578116.92,53526,22.63,75154.0,27.91,-8.97,-9.93,0,*42
1501578118.14,53527,22.63,75154.0,27.91,-9.31,-10.27,0,*79
1501578119.36,53528,22.63,75156.8,27.91,-8.75,-9.75,0,*48
1501578120.58,53529,22.63,75158.0,27.89,-9.45,-10.45,0,*79
1501578121.79,53530,22.63,75158.5,27.89,-9.23,-10.19,0,*78
1501578123.01,53531,22.63,75156.0,27.87,-8.97,-9.93,0,*43
1501578124.25,53532,22.63,75152.3,27.87,-8.59,-9.61,0,*4F
1501578125.47,53533,22.63,75154.5,27.85,-7.65,-8.63,0,*4F
1501578126.72,53534,22.63,75156.8,27.85,-7.27,-8.07,0,*4C
1501578127.94,53535,22.63,75156.5,27.85,-7.65,-8.37,0,*48
1501578129.19,53536,22.63,75156.5,27.87,-7.11,-7.95,0,*4D
1501578130.44,53537,22.63,75156.3,27.87,-6.93,-7.87,0,*44
1501578131.65,53538,22.63,75156.0,27.89,-6.89,-7.73,0,*45
1501578132.87,53539,22.63,75154.5,27.89,-6.81,-7.69,0,*47
1501578134.1,53540,22.63,75156.0,27.87,-8.71,-9.71,0,*41
1501578135.31,53541,22.63,75154.0,27.89,-7.73,-8.67,0,*45
1501578136.54,53542,22.69,75156.5,27.87,-7.39,-8.29,0,*4C
1501578137.79,53543,22.63,75154.5,27.87,-7.11,-7.95,0,*4F
1501578139.05,53544,22.63,75154.0,27.87,-7.73,-8.81,0,*46
1501578140.27,53545,22.63,75154.8,27.87,-7.53,-8.45,0,*4D
1501578141.49,53546,22.63,75156.3,27.89,-6.89,-7.73,0,*4C
1501578142.72,53547,22.63,75156.0,27.91,-6.13,-7.05,0,*46
1501578143.94,53548,22.63,75156.3,27.93,-5.69,-6.59,0,*4D
1501578145.18,53549,22.69,75156.5,27.93,-5.81,-6.63,0,*43
1501578146.39,53550,22.63,75158.5,27.93,-5.27,-5.97,0,*4F
1501578147.63,53551,22.63,75156.0,27.97,-5.35,-6.27,0,*41
1501578148.87,53552,22.63,75158.3,27.97,-5.27,-6.01,0,*45
1501578150.15,53553,22.63,75156.3,28.01,-5.15,-5.93,0,*4D
1501578151.4,53554,22.69,75158.8,28.01,-5.31,-6.13,0,*47
1501578152.61,53555,22.69,75156.8,28.05,-5.43,-6.31,0,*47
1501578153.85,53556,22.63,75156.3,28.07,-7.01,-8.03,0,*4D
1501578155.08,53557,22.63,75158.8,28.05,-7.35,-8.33,0,*4A
1501578156.3,53558,22.63,75156.8,28.07,-6.27,-7.23,0,*4B
1501578157.51,53559,22.69,75156.5,28.07,-6.81,-7.73,0,*43
1501578158.76,53560,22.63,75158.8,28.05,-5.65,-6.43,0,*40
1501578160.0,53561,22.63,75156.3,28.07,-5.11,-5.85,0,*49
1501578161.23,53562,22.63,75158.8,28.11,-4.81,-5.73,0,*4C
1501578162.47,53563,22.63,75158.5,28.13,-4.99,-5.85,0,*4F
1501578163.7,53564,22.69,75162.0,28.13,-4.99,-5.69,0,*4A
1501578164.94,53565,22.69,75158.5,28.15,-5.03,-5.89,0,*41
1501578166.21,53566,22.69,75158.8,28.17,-4.93,-5.69,0,*46
1501578167.45,53567,22.63,75156.3,28.17,-4.99,-5.85,0,*4F
1501578168.69,53568,22.69,75158.5,28.21,-4.49,-5.31,0,*47
1501578169.91,53569,22.69,75160.8,28.23,-4.25,-5.15,0,*48
1501578171.11,53570,22.69,75160.3,28.27,-5.11,-5.97,0,*48
1501578172.34,53571,22.63,75158.3,28.27,-4.85,-5.77,0,*4B
1501578173.6,53572,22.69,75158.3,28.31,-4.77,-5.69,0,*4D
1501578174.82,53573,22.63,75156.3,28.31,-4.53,-5.39,0,*4F
1501578176.06,53574,22.69,75158.5,28.31,-6.73,-7.57,0,*42
1501578177.31,53575,22.69,75158.8,28.31,-5.81,-6.73,0,*4A
1501578178.57,53576,22.63,75158.0,28.31,-4.81,-5.73,0,*4B
1501578179.79,53577,22.63,75154.5,28.33,-6.05,-6.93,0,*4B
1501578181.01,53578,22.63,75156.8,28.35,-5.51,-6.39,0,*40
1501578182.25,53579,22.69,75160.3,28.35,-5.31,-6.13,0,*4F
1501578183.52,53580,22.69,75162.0,28.35,-5.07,-5.69,0,*42
1501578184.73,53581,22.63,75158.8,28.37,-4.69,-5.47,0,*44
1501578185.95,53582,22.63,75156.0,28.39,-5.39,-6.35,0,*4B
1501578187.15,53583,22.63,75156.5,28.41,-4.61,-5.35,0,*4A
1501578188.36,53584,22.69,75158.5,28.41,-4.99,-5.69,0,*43
1501578189.6,53585,22.63,75156.0,28.41,-4.89,-5.77,0,*4C
1501578190.8,53586,22.63,75158.0,28.45,-5.51,-6.43,0,*4B
1501578192.02,53587,22.69,75156.0,28.43,-6.31,-7.19,0,*47
1501578193.27,53588,22.69,75158.0,28.45,-5.85,-6.63,0,*4E
1501578194.51,53589,22.69,75156.0,28.45,-5.77,-6.63,0,*42
1501578195.71,53590,22.69,75156.3,28.45,-6.39,-7.23,0,*46
1501578196.93,53591,22.69,75156.8,28.45,-5.89,-6.77,0,*4F
1501578198.14,53592,22.69,75156.8,28.45,-5.61,-6.51,0,*4E
1501578199.36,53593,22.69,75158.8,28.45,-5.89,-6.77,0,*4D
1501578200.6,53594,22.69,75156.8,28.45,-7.01,-7.95,0,*45
1501578201.82,53595,22.69,75158.0,28.45,-7.23,-7.99,0,*48
1501578203.06,53596,22.69,75156.0,28.43,-7.99,-8.93,0,*49
1501578204.31,53597,22.63,75154.8,28.43,-8.11,-9.05,0,*49
1501578205.53,53598,22.69,75158.0,28.39,-8.85,-9.75,0,*41
1501578206.81,53599,22.69,75158.5,28.39,-8.51,-9.53,0,*4D
1501578208.04,53600,22.69,75156.8,28.37,-9.45,-10.35,0,*7C
1501578209.27,53601,22.69,75160.5,28.35,-10.01,-10.97,0,*4F
1501578210.5,53602,22.69,75158.5,28.31,-9.05,-10.09,0,*73
1501578211.77,53603,22.69,75156.0,28.31,-7.43,-8.51,0,*4A
1501578213.01,53604,22.63,75154.3,28.31,-7.95,-8.97,0,*4C
1501578214.22,53605,22.69,75156.0,28.27,-8.63,-9.57,0,*41
1501578215.43,53606,22.69,75154.8,28.27,-7.95,-8.93,0,*4D
1501578216.63,53607,22.69,75158.5,28.29,-8.25,-9.23,0,*4C
1501578217.87,53608,22.69,75156.0,28.27,-7.57,-8.51,0,*43
1501578219.08,53609,22.69,75158.5,28.27,-6.09,-7.01,0,*42
1501578220.32,53610,22.69,75158.3,28.27,-7.05,-7.95,0,*4A
1501578221.55,53611,22.69,75160.5,28.27,-7.31,-8.11,0,*4F
1501578222.77,53612,22.69,75158.3,28.23,-8.41,-9.37,0,*45
1501578223.99,53613,22.69,75156.3,28.23,-9.49,-10.57,0,*73
1501578225.24,53614,22.69,75156.3,28.21,-9.67,-10.79,0,*76
1501578226.51,53615,22.69,75158.3,28.17,-9.61,-10.71,0,*7C
1501578227.74,53616,22.69,75158.5,28.17,-9.19,-10.15,0,*72
1501578228.98,53617,22.69,75156.0,28.13,-9.57,-10.35,0,*7F
1501578230.21,53618,22.63,75154.8,28.13,-7.27,-8.29,0,*4D
1501578231.44,53619,22.69,75160.3,28.13,-7.39,-8.41,0,*4D
1501578232.69,53620,22.69,75158.3,28.13,-9.67,-10.67,0,*7F
1501578233.92,53621,22.69,75156.8,28.09,-9.71,-10.57,0,*71
1501578235.15,53622,22.69,75158.0,28.09,-9.19,-10.15,0,*7A
1501578236.35,53623,22.69,75158.0,28.07,-9.05,-10.05,0,*79
1501578237.59,53624,22.69,75156.8,28.05,-8.63,-9.57,0,*42
1501578238.8,53625,22.69,75156.0,28.05,-8.29,-9.23,0,*4E
1501578240.05,53626,22.69,75154.3,28.05,-7.61,-8.45,0,*4F
1501578241.28,53627,22.69,75156.8,28.05,-7.69,-8.75,0,*45
1501578242.53,53628,22.69,75156.5,28.01,-8.67,-9.61,0,*4B
1501578243.74,53629,22.69,75158.5,28.01,-8.33,-9.27,0,*49
1501578244.97,53630,22.69,75158.3,27.99,-6.81,-7.77,0,*43
1501578246.18,53631,22.69,75158.3,27.99,-7.69,-8.55,0,*4A
1501578247.4,53632,22.69,75156.3,27.99,-6.77,-7.61,0,*4F
1501578248.65,53633,22.69,75156.0,28.01,-6.89,-7.69,0,*49
1501578249.89,53634,22.69,75154.3,28.01,-7.69,-8.59,0,*4D
1501578251.14,53635,22.69,75156.8,28.01,-7.57,-8.37,0,*49
1501578252.36,53636,22.69,75156.3,27.99,-7.91,-8.93,0,*40
1501578253.61,53637,22.69,75156.0,28.01,-7.73,-8.75,0,*4B
1501578254.86,53638,22.69,75154.5,27.99,-8.51,-9.45,0,*47
1501578256.1,53639,22.69,75152.5,28.01,-7.15,-7.99,0,*48
1501578257.36,53640,22.69,75152.8,28.01,-6.51,-7.43,0,*40
1501578258.63,53641,22.69,75156.0,28.01,-7.27,-8.11,0,*49
1501578259.9,53642,22.69,75158.5,28.01,-6.63,-7.39,0,*4E
1501578261.14,53643,22.69,75152.0,28.01,-7.31,-8.25,0,*4B
1501578262.35,53644,22.69,75154.5,28.05,-7.53,-8.45,0,*4A
1501578263.59,53645,22.69,75158.8,28.05,-8.03,-9.27,0,*44
1501578264.81,53646,22.63,75154.5,28.05,-8.97,-9.79,0,*41
1501578266.06,53647,22.69,75158.5,28.01,-8.07,-9.05,0,*46
1501578267.32,53648,22.69,75156.0,28.01,-7.01,-7.95,0,*47
1501578268.55,53649,22.69,75156.3,28.01,-7.15,-7.87,0,*40
1501578269.8,53650,22.69,75156.8,28.01,-7.19,-7.99,0,*4B
1501578271.04,53651,22.69,75156.5,28.05,-8.29,-9.37,0,*48
1501578272.3,53652,22.69,75158.8,28.01,-7.73,-8.45,0,*4B
1501578273.55,53653,22.69,75156.8,28.01,-8.11,-9.01,0,*40
1501578274.79,53654,22.69,75156.8,28.01,-7.15,-7.95,0,*4F
1501578276.02,53655,22.69,75160.8,28.05,-7.11,-7.83,0,*49
1501578277.27,53656,22.69,75156.5,28.01,-8.81,-9.71,0,*4B
1501578278.49,53657,22.69,75156.8,28.01,-8.75,-9.75,0,*45
1501578279.7,53658,22.69,75160.3,27.99,-7.99,-8.67,0,*4B
1501578280.95,53659,22.69,75156.8,27.99,-8.51,-9.53,0,*47
1501578282.14,53660,22.69,75156.3,27.99,-8.37,-9.31,0,*49
1501578283.35,53661,22.69,75156.5,27.99,-9.05,-10.05,0,*77
1501578284.58,53662,22.69,75154.5,27.99,-9.49,-10.35,0,*7F
1501578285.82,53663,22.69,75158.5,27.95,-8.07,-9.01,0,*46
1501578287.07,53664,22.69,75156.8,27.97,-7.61,-8.41,0,*49
1501578288.32,53665,22.69,75158.3,27.95,-9.41,-10.31,0,*78
1501578289.54,53666,22.69,75152.5,27.93,-8.37,-9.41,0,*42
1501578290.72,53667,22.69,75156.8,27.93,-8.45,-9.31,0,*41
1501578291.97,53668,22.69,75156.8,27.93,-7.73,-8.51,0,*43
1501578293.18,53669,22.69,75156.0,27.93,-7.01,-7.87,0,*43
1501578294.39,53670,22.69,75156.5,27.91,-7.83,-8.67,0,*42
1501578295.63,53671,22.69,75156.0,27.95,-8.03,-8.89,0,*40
1501578296.82,53672,22.69,75158.3,27.93,-8.25,-9.05,0,*44
1501578298.0,53673,22.69,75152.5,27.93,-8.33,-9.27,0,*42
1501578299.22,53674,22.69,75156.8,27.93,-7.99,-8.93,0,*44
1501578300.43,53675,22.69,75158.8,27.93,-7.77,-8.59,0,*43
1501578301.65,53676,22.63,75152.8,27.93,-8.11,-9.01,0,*43
1501578302.85,53677,22.69,75156.0,27.93,-8.71,-9.71,0,*43
1501578304.09,53678,22.69,75158.8,27.91,-8.11,-9.05,0,*4B
1501578305.3,53679,22.69,75154.5,27.93,-7.31,-8.21,0,*42
1501578306.51,53680,22.69,75158.3,27.91,-7.87,-8.75,0,*4A
1501578307.76,53681,22.69,75158.3,27.93,-8.51,-9.53,0,*48
1501578308.98,53682,22.69,75152.8,27.91,-9.31,-10.31,0,*72
1501578310.2,53683,22.69,75152.5,27.91,-8.67,-9.67,0,*4A
1501578311.41,53684,22.69,75154.5,27.89,-8.17,-9.11,0,*42
1501578312.63,53685,22.69,75152.0,27.89,-8.67,-9.61,0,*43
1501578313.83,53686,22.69,75158.3,27.89,-8.89,-9.97,0,*49
1501578315.04,53687,22.69,75156.5,27.89,-7.31,-8.17,0,*4D
1501578316.25,53688,22.69,75158.5,27.89,-7.23,-8.11,0,*47
1501578317.47,53689,22.69,75158.3,27.89,-7.05,-7.87,0,*42
1501578318.68,53690,22.69,75154.0,27.89,-7.35,-8.17,0,*4F
1501578319.88,53691,22.69,75154.0,27.89,-6.77,-7.49,0,*4D
1501578321.11,53692,22.69,75152.0,27.91,-7.61,-8.63,0,*46
1501578322.37,53693,22.69,75156.0,27.91,-7.05,-7.91,0,*47
1501578323.59,53694,22.69,75154.5,27.93,-7.19,-8.11,0,*48
1501578324.84,53695,22.69,75158.8,27.93,-6.97,-7.77,0,*41
1501578326.06,53696,22.69,75152.8,27.93,-7.01,-7.87,0,*43
1501578327.27,53697,22.69,75158.0,27.93,-7.39,-8.21,0,*4A
1501578328.51,53698,22.69,75156.0,27.95,-8.89,-9.83,0,*4E
1501578329.74,53699,22.69,75156.8,27.95,-9.27,-10.19,0,*71
1501578330.95,53700,22.69,75156.5,27.93,-9.19,-10.15,0,*77
1501578332.2,53701,22.69,75154.0,27.91,-9.11,-10.01,0,*79
1501578333.45,53702,22.69,75158.0,27.91,-9.75,-10.71,0,*7F
1501578334.72,53703,22.69,75158.8,27.87,-9.83,-10.75,0,*74
1501578335.93,53704,22.69,75154.3,27.85,-9.71,-10.53,0,*78
1501578337.13,53705,22.69,75156.5,27.85,-9.31,-10.09,0,*72
1501578338.33,53706,22.69,75158.0,27.85,-9.01,-9.97,0,*4D
1501578339.56,53707,22.69,75156.0,27.85,-7.99,-9.01,0,*4C
1501578340.8,53708,22.69,75154.8,27.85,-7.69,-8.51,0,*48
1501578342.04,53709,22.69,75156.8,27.83,-7.57,-8.63,0,*43
1501578343.26,53710,22.69,75154.8,27.85,-9.57,-10.49,0,*72
1501578344.49,53711,22.69,75154.5,27.83,-8.71,-9.67,0,*44
1501578345.73,53712,22.69,75158.0,27.83,-8.51,-9.31,0,*46
1501578346.97,53713,22.69,75156.8,27.83,-7.95,-8.85,0,*4E
1501578348.24,53714,22.69,75156.3,27.83,-8.07,-9.15,0,*45
1501578349.48,53715,22.69,75156.8,27.83,-7.77,-8.71,0,*4F
1501578350.72,53716,22.69,75154.8,27.83,-7.65,-8.45,0,*48
1501578351.93,53717,22.69,75154.8,27.83,-8.37,-9.31,0,*43
1501578353.12,53718,22.69,75150.8,27.85,-7.83,-8.71,0,*4F
1501578354.39,53719,22.69,75152.8,27.83,-7.77,-8.51,0,*41
1501578355.61,53720,22.69,75154.8,27.85,-6.47,-7.39,0,*4E
1501578356.83,53721,22.69,75158.3,27.87,-6.35,-7.15,0,*46
1501578358.1,53722,22.69,75154.8,27.87,-5.65,-6.27,0,*43
1501578359.32,53723,22.69,75156.5,27.89,-5.23,-6.09,0,*42
1501578360.5,53724,22.69,75158.0,27.93,-6.05,-6.89,0,*41
1501578361.74,53725,22.69,75152.5,27.93,-6.23,-7.05,0,*41
1501578363.01,53726,22.69,75154.0,27.97,-6.19,-6.97,0,*45
1501578364.28,53727,22.69,75158.5,27.97,-5.85,-6.63,0,*49
1501578365.52,53728,22.69,75156.3,27.99,-6.63,-7.57,0,*45
1501578366.79,53729,22.69,75154.0,28.01,-7.95,-8.81,0,*46
1501578368.04,53730,22.69,75158.0,27.97,-8.41,-9.37,0,*44
1501578369.25,53731,22.69,75156.3,27.97,-8.29,-9.31,0,*4D
1501578370.47,53732,22.69,75156.5,27.95,-9.23,-10.09,0,*74
1501578371.69,53733,22.69,75152.5,27.95,-8.97,-9.93,0,*40
1501578372.93,53734,22.69,75158.8,27.95,-7.95,-8.85,0,*4C
1501578374.16,53735,22.69,75158.5,27.95,-7.39,-8.17,0,*40
1501578375.39,53736,22.69,75154.8,27.93,-6.23,-7.01,0,*47
1501578376.63,53737,22.69,75156.5,27.95,-5.81,-6.69,0,*44
1501578377.85,53738,22.69,75154.5,27.95,-6.01,-6.85,0,*42
1501578379.07,53739,22.69,75154.8,27.99,-6.51,-7.31,0,*44
1501578380.29,53740,22.69,75152.3,27.99,-7.35,-8.37,0,*40
1501578381.51,53741,22.69,75154.5,27.99,-7.35,-8.25,0,*42
1501578382.74,53742,22.69,75152.3,27.99,-7.15,-8.07,0,*43
1501578383.95,53743,22.69,75154.0,28.01,-8.33,-9.31,0,*43
1501578385.18,53744,22.69,75154.5,27.99,-9.41,-10.45,0,*75
1501578386.41,53745,22.69,75156.5,27.99,-9.45,-10.27,0,*74
1501578387.66,53746,22.69,75158.3,27.97,-9.53,-10.57,0,*79
1501578388.9,53747,22.69,75154.3,27.95,-8.17,-9.15,0,*45
1501578390.1,53748,22.69,75152.5,27.95,-6.69,-7.53,0,*41
1501578391.34,53749,22.69,75156.5,27.97,-6.63,-7.49,0,*43
1501578392.59,53750,22.69,75152.8,27.97,-6.81,-7.61,0,*4D
1501578393.84,53751,22.69,75156.8,27.97,-6.81,-7.57,0,*49
1501578395.09,53752,22.69,75154.3,27.97,-6.55,-7.43,0,*46
1501578396.34,53753,22.69,75154.0,28.01,-6.89,-7.57,0,*43
1501578397.62,53754,22.69,75154.5,28.01,-6.93,-7.73,0,*49
1501578398.89,53755,22.69,75154.5,28.05,-6.97,-7.77,0,*4C
1501578400.12,53756,22.69,75152.3,28.05,-7.15,-8.03,0,*48
1501578401.39,53757,22.69,75158.3,28.01,-8.07,-8.81,0,*4B
1501578402.64,53758,22.69,75154.3,28.01,-8.07,-8.93,0,*47
1501578403.86,53759,22.69,75152.3,28.01,-7.83,-8.59,0,*43
1501578405.09,53760,22.69,75152.3,28.05,-7.39,-8.29,0,*4B
1501578406.35,53761,22.69,75156.3,28.01,-7.19,-8.07,0,*40
1501578407.59,53762,22.69,75156.3,28.01,-6.85,-7.69,0,*40
1501578408.85,53763,22.69,75152.5,28.01,-6.59,-7.43,0,*48
1501578410.06,53764,22.69,75154.3,28.05,-8.29,-9.27,0,*4E
1501578411.31,53765,22.69,75158.0,28.05,-9.45,-10.35,0,*7F
1501578412.54,53766,22.69,75154.0,28.01,-8.89,-9.75,0,*45
1501578413.78,53767,22.69,75154.3,28.01,-7.39,-8.25,0,*44
1501578415.05,53768,22.69,75154.8,28.01,-6.63,-7.43,0,*4A
1501578416.3,53769,22.69,75150.8,28.01,-6.51,-7.39,0,*47
1501578417.51,53770,22.69,75152.3,28.05,-6.73,-7.53,0,*47
1501578418.73,53771,22.69,75152.0,28.07,-6.47,-7.27,0,*40
1501578419.92,53772,22.69,75154.8,28.07,-6.31,-7.19,0,*4F
1501578421.14,53773,22.69,75150.0,28.07,-6.51,-7.35,0,*46
1501578422.39,53774,22.69,75152.8,28.09,-6.51,-7.31,0,*4B
1501578423.65,53775,22.69,75150.3,28.09,-7.27,-7.99,0,*48
1501578424.91,53776,22.69,75152.0,28.09,-7.19,-8.07,0,*4E
1501578426.15,53777,22.69,75152.0,28.11,-7.27,-8.11,0,*4C
1501578427.39,53778,22.69,75148.5,28.09,-8.55,-9.45,0,*40
1501578428.62,53779,22.69,75152.3,28.09,-8.89,-9.89,0,*40
1501578429.85,53780,22.69,75152.3,28.09,-9.27,-10.09,0,*73
1501578431.03,53781,22.69,75150.3,28.07,-8.37,-9.31,0,*4F
1501578432.27,53782,22.69,75150.0,28.05,-8.17,-9.11,0,*4E
1501578433.52,53783,22.69,75150.8,28.01,-7.99,-8.89,0,*42
1501578434.78,53784,22.69,75154.3,28.01,-8.93,-9.83,0,*4B
1501578436.05,53785,22.69,75156.3,28.01,-8.81,-9.83,0,*49
1501578437.29,53786,22.69,75150.8,27.99,-8.03,-9.11,0,*45
1501578438.51,53787,22.69,75154.3,28.01,-8.25,-9.27,0,*4B
1501578439.7,53788,22.69,75158.8,27.99,-8.29,-9.19,0,*4B
1501578440.92,53789,22.69,75154.0,27.99,-7.91,-8.93,0,*45
1501578442.13,53790,22.69,75154.5,27.99,-7.99,-8.97,0,*41
1501578443.35,53791,22.69,75154.0,27.99,-7.73,-8.63,0,*4F
1501578444.55,53792,22.69,75154.5,27.99,-8.37,-9.31,0,*45
1501578445.77,53793,22.69,75156.5,27.97,-9.05,-9.93,0,*42
1501578447.02,53794,22.69,75152.5,27.97,-8.37,-9.37,0,*4B
1501578448.27,53795,22.69,75154.5,27.97,-8.37,-9.37,0,*4A
1501578449.49,53796,22.69,75154.3,27.97,-7.49,-8.37,0,*4E
1501578450.73,53797,22.69,75152.3,27.95,-8.17,-9.11,0,*4C
1501578451.97,53798,22.69,75156.5,27.95,-7.11,-8.03,0,*48
1501578453.21,53799,22.69,75154.5,27.97,-7.19,-8.03,0,*43
1501578454.46,53800,22.69,75154.5,27.97,-7.99,-8.85,0,*4A
1501578455.67,53801,22.69,75152.3,27.97,-8.37,-9.31,0,*4E
1501578456.88,53802,22.69,75152.0,27.95,-7.83,-8.67,0,*4D
1501578458.12,53803,22.69,75154.5,27.95,-8.07,-9.01,0,*4E
1501578459.34,53804,22.69,75154.3,27.95,-8.75,-9.71,0,*4B
1501578460.59,53805,22.69,75154.8,27.95,-8.71,-9.53,0,*4E
1501578461.83,53806,22.69,75152.3,27.95,-8.55,-9.57,0,*4F
1501578463.07,53807,22.69,75154.3,27.95,-8.45,-9.49,0,*40
1501578464.28,53808,22.69,75150.8,27.93,-7.69,-8.59,0,*48
1501578465.49,53809,22.69,75154.0,27.93,-7.15,-7.99,0,*41
1501578466.73,53810,22.69,75154.5,27.93,-7.05,-7.99,0,*48
1501578467.92,53811,22.69,75154.8,27.93,-6.77,-7.53,0,*4B
1501578469.14,53812,22.69,75152.5,27.95,-7.11,-7.83,0,*42
1501578470.38,53813,22.69,75156.0,27.95,-7.35,-8.17,0,*47
1501578471.61,53814,22.69,75154.8,27.95,-7.91,-8.67,0,*49
1501578472.84,53815,22.69,75152.8,27.95,-7.95,-8.71,0,*4B
1501578474.08,53816,22.69,75154.8,27.95,-7.73,-8.45,0,*47
1501578475.31,53817,22.69,75152.8,27.95,-9.01,-9.97,0,*43
1501578476.54,53818,22.69,75152.3,27.95,-9.23,-10.19,0,*72
1501578477.74,53819,22.69,75154.3,27.93,-9.19,-10.15,0,*70
1501578479.02,53820,22.69,75150.5,27.91,-9.45,-10.41,0,*70
1501578480.27,53821,22.69,75152.8,27.87,-10.35,-11.33,0,*4D
1501578481.47,53822,22.69,75154.3,27.85,-10.49,-11.45,0,*46
1501578482.68,53823,22.69,75152.8,27.85,-10.09,-10.97,0,*4D
1501578483.92,53824,22.69,75154.0,27.83,-9.53,-10.49,0,*78
1501578485.13,53825,22.69,75152.3,27.77,-9.31,-10.27,0,*7E
1501578486.33,53826,22.69,75152.8,27.77,-9.27,-10.23,0,*7E
1501578487.54,53827,22.69,75154.5,27.77,-9.27,-10.09,0,*77
1501578488.76,53828,22.69,75152.5,27.75,-9.31,-10.27,0,*71
1501578489.99,53829,22.69,75152.5,27.73,-9.75,-10.75,0,*71
1501578491.19,53830,22.69,75152.3,27.73,-8.89,-9.93,0,*4B
1501578492.38,53831,22.69,75152.5,27.73,-7.87,-8.89,0,*41
1501578493.61,53832,22.69,75152.8,27.73,-7.11,-8.07,0,*4B
1501578494.82,53833,22.69,75154.3,27.73,-6.77,-7.69,0,*4C
1501578496.04,53834,22.69,75152.5,27.75,-6.89,-7.83,0,*48
1501578497.26,53835,22.69,75152.3,27.75,-6.31,-7.11,0,*41
1501578498.49,53836,22.69,75154.5,27.75,-7.69,-8.63,0,*44
1501578499.74,53837,22.69,75154.5,27.77,-6.97,-7.99,0,*4D
1501578500.92,53838,22.69,75148.8,27.77,-7.49,-8.55,0,*4F
1501578502.11,53839,22.69,75154.3,27.77,-8.21,-9.27,0,*4B
1501578503.3,53840,22.69,75152.3,27.77,-7.87,-8.71,0,*44
1501578504.55,53841,22.69,75152.0,27.77,-7.05,-7.99,0,*46
1501578505.77,53842,22.69,75154.5,27.77,-7.19,-7.99,0,*48
1501578507.01,53843,22.69,75154.0,27.79,-6.23,-7.15,0,*4B
1501578508.28,53844,22.69,75152.0,27.79,-5.61,-6.63,0,*49